Regional Weather Roundup
Issued by NWS

Home | Current Version | Previous Version | Text Only | Print | Product List | Glossary Off
Versions: 1 2 3 4 5 6 7 8 9 10 11 12 13 14 15 16 17 18 19 20 21 22 23 24 25 26 27 28 29 30 31 32 33 34 35 36 37 38 39 40 41 42 43 44 45 46 47 48 49 50

000
ASUS43 KLMK 101310
RWRKY
KENTUCKY REGIONAL WEATHER ROUNDUP
NATIONAL WEATHER SERVICE LOUISVILLE KY
900 AM EDT THU JUL 10 2014

NOTE "FAIR" INDICATES FEW OR NO CLOUDS BELOW 12,000 FEET
WITH NO SIGNIFICANT WEATHER AND/OR OBSTRUCTIONS TO VISIBILITY.

KYZ001>023-026-027-061>063-070>075-101400-
WESTERN AND SOUTH CENTRAL KENTUCKY

CITY           SKY/WX    TMP DP  RH WIND       PRES   REMARKS
PADUCAH        MOSUNNY   74  65  73 NE6       30.08R
HENDERSON      SUNNY     72  63  73 NE6       30.10R
OWENSBORO      SUNNY     73  63  71 N7        30.10R
HOPKINSVILLE   LGT RAIN  72  66  80 CALM      30.09R
BOWLING GREEN  SUNNY     70  64  81 CALM      30.08S
GLASGOW        MOSUNNY   69  65  84 CALM      30.09R
$$

KYZ024-025-028>034-038-045-046-053-101400-
NORTH CENTRAL KENTUCKY

CITY           SKY/WX    TMP DP  RH WIND       PRES   REMARKS
LOUISVILLE/SDF MOSUNNY   75  61  61 N7        30.09R
LOUISVILLE/LOU MOSUNNY   74  61  63 NE5       30.10R
FORT KNOX      SUNNY     72  63  72 NE6       30.08R
$$

KYZ035>037-039>044-047>052-055>060-089>105-101400-
NORTHEAST KENTUCKY

CITY           SKY/WX    TMP DP  RH WIND       PRES   REMARKS
LEXINGTON      SUNNY     74  63  68 CALM      30.11R
COVINGTON      MOSUNNY   71  59  65 NE6       30.10R
FRANKFORT      MOSUNNY   72  62  71 CALM      30.09R
$$

KYZ054-064>069-076>088-106>120-101400-
SOUTHEAST KENTUCKY

CITY           SKY/WX    TMP DP  RH WIND       PRES   REMARKS
JACKSON        SUNNY     70  64  81 CALM      30.11R
LONDON         MOSUNNY   68  65  90 CALM      30.11R
SOMERSET       SUNNY     68  64  88 CALM      30.11R
MIDDLESBORO    CLOUDY    68  67  96 CALM      30.12R
MONTICELLO     MOSUNNY   70  67  90 CALM      30.12R
$$




USA.gov is the U.S. government's official web portal to all federal, state and local government web resources and services.